Location: Fremont
(37.5480°N, 121.9880°W)
Time: 02:28:52
(UTC-08:00)

Daily predictions for brighter satellites

Satellite Brightness Start Highest point End
(mag) Time Altitude Azimuth Time Altitude Azimuth Time Altitude Azimuth
USA 215 4.3 03:55:59 10° ENE 04:02:01 40° SE 04:03:49 33° SSE
CZ-3C R/B 4.1 04:05:24 29° SSW 04:09:02 36° SSE 05:08:44 10° ESE
CZ-3C R/B 4.1 04:05:23 29° SSW 04:09:02 36° SSE 05:08:44 10° ESE
CENTAUR R/B 4.2 04:14:51 23° NNE 04:14:51 23° NNE 04:17:32 10° NNE
Lacrosse 5 3.4 04:14:07 33° ESE 04:14:07 33° ESE 04:18:07 10° ENE
Feng Yun 1-1 Rocket 4.5 04:27:14 10° NNE 04:32:48 66° ESE 04:38:11 10° S
Meteor 1-20 Rocket 4.4 04:30:06 10° S 04:35:37 67° E 04:41:05 10° NNE
Centaur D-1AR AC-39 4.3 04:42:21 14° S 04:42:21 14° S 04:43:38 10° S
Tiangong 2 4.4 04:44:45 11° ENE 04:44:45 11° ENE 04:44:55 10° ENE
BREEZE-M DEB (TANK) 3.8 04:55:05 52° SSW 04:56:06 70° SE 05:06:59 10° NE
SL-08 ROCKET BODY 4.2 04:53:30 10° S 04:59:28 76° W 05:05:23 10° N
SL-16 R/B 4.1 05:03:59 16° N 05:03:59 16° N 05:05:18 10° N
Cosmos 2327 Rocket 4.4 04:57:17 10° S 05:03:40 77° W 05:10:00 10° N
OAO 3 Copernicus 4.3 05:03:50 62° SW 05:04:22 67° S 05:09:25 10° E
Thor Agena Rocket 4.1 05:02:51 10° S 05:06:26 40° SW 05:06:26 40° SW
Cosmos 44 4.4 05:04:50 10° S 05:09:59 49° ESE 05:15:02 10° NE
Okean 1 3.6 05:11:39 56° SSW 05:11:39 56° SSW 05:14:55 10° S
Cosmos 2074 Rocket 3.9 05:06:49 10° SSW 05:12:59 61° W 05:19:12 10° N
Abrixas rocket 3.3 05:16:06 38° NE 05:16:06 38° NE 05:18:23 10° NE
SKYMED 2 4.0 05:11:28 10° SSE 05:15:44 62° ENE 05:19:09 16° N
Cosmos 2056 Rocket 3.4 05:14:22 26° NNW 05:17:18 81° ENE 05:22:24 10° SSE
Meteor 1-11 Rocket 4.0 05:15:12 10° S 05:21:01 71° E 05:26:45 10° NNE
Cosmos 1346 Rocket 2.7 05:22:47 62° WSW 05:22:47 62° WSW 05:26:33 10° S
Cosmos 2184 Rocket 4.2 05:24:27 10° SSW 05:30:18 45° WNW 05:36:14 10° N
Cosmos 1624 Rocket 3.9 05:27:43 25° NNW 05:30:50 69° WSW 05:36:07 10° S
Ariane Rocket 3.2 05:26:18 10° NNE 05:31:22 72° ESE 05:36:24 10° S
Meteor 1-13 Rocket 4.3 05:28:15 10° N 05:34:14 85° W 05:40:09 10° S
Cosmos 1238 Rocket 4.2 05:34:03 33° WNW 05:34:45 34° W 05:40:03 10° SSW
Cosmos 1371 Rocket 4.2 05:33:34 30° NW 05:35:50 49° WSW 05:40:51 10° S
PSLV R/B 3.2 05:35:20 60° W 05:35:52 79° SSW 05:39:14 10° ESE
Cosmos 1536 Rocket 4.3 05:39:07 32° W 05:39:07 32° W 05:42:47 10° SSW
CZ-3 R/B 3.1 05:31:26 10° SW 05:41:58 29° S 05:45:58 10° ESE
SL-24 R/B 4.5 05:38:17 10° NNE 05:43:38 80° ESE 05:48:09 10° S
CSL-04 Rocket 3.9 05:38:05 10° NNE 05:43:40 75° ESE 05:49:07 10° S
Cosmos 1025 Rocket 3.6 05:40:11 10° N 05:44:30 58° E 05:48:47 10° SSE
USA 215 3.4 05:38:46 10° NE 05:45:06 55° NW 05:51:14 11° WSW
Cosmos 2154 Rocket 3.9 05:39:53 10° SSW 05:46:03 67° W 05:52:14 10° N
Cosmos 921 Rocket 4.2 05:47:57 24° WSW 05:47:57 24° WSW 05:51:21 10° SSW
Meteor 2-4 Rocket 3.8 05:46:38 10° N 05:52:12 80° E 05:57:54 10° S
IDEFIX/ARIANE 42P 4.4 05:48:03 10° NNE 05:52:44 34° E 05:57:26 10° SSE
Cosmos 44 Rocket 3.8 05:48:01 10° SW 05:52:51 41° NW 05:57:43 10° NNE
Cosmos 1536 2.7 05:51:13 10° SSW 05:55:09 64° W 05:59:09 10° N
CZ-4 R/B 2.7 05:51:47 10° NNE 05:55:32 41° E 05:59:13 10° S
Lacrosse 5 2.4 05:53:25 20° W 05:56:27 38° NW 06:01:13 10° NNE
Okean 1 Rocket 3.5 05:53:30 10° SSW 05:57:37 39° W 06:01:44 10° N
Cosmos 1603 4.5 05:53:24 10° WSW 05:58:14 28° WNW 06:03:05 10° N
Cosmos 2369 Rocket 2.2 05:53:04 10° NNW 05:58:50 89° WSW 06:04:31 10° SSE
Meteor 1-5 Rocket 4.4 05:54:38 10° S 05:59:59 72° E 06:05:17 10° NNE
Cosmos 1544 Rocket 4.5 05:56:32 10° SSE 06:00:44 51° E 06:04:59 10° NNE
SL-24 DEB 4.2 05:56:40 10° S 06:01:26 73° W 06:06:14 10° N
CENTAUR R/B 4.3 06:02:05 12° NW 06:03:36 13° NNW 06:06:34 10° N
COSMO-SKYMED 1 3.2 05:59:50 10° SSW 06:03:48 35° W 06:07:44 10° NNW
Cosmos 1452 Rocket 3.5 06:01:18 10° NNW 06:06:35 87° WSW 06:11:52 10° SSE
Lacrosse 4 Rocket 3.3 06:12:16 10° N 06:15:46 26° NE 06:19:12 10° ESE
SL-8 Rocket 4.0 06:10:55 10° S 06:17:12 84° W 06:23:27 10° N
Tiangong 2 1.8 06:16:48 15° NW 06:19:04 41° NNE 06:22:05 10° E
Okean 1-7 Rocket 4.2 06:15:13 10° NNW 06:19:09 33° W 06:23:04 10° SSW
IRS-1A Rocket 4.3 06:16:14 10° N 06:21:57 75° WNW 06:27:46 10° SSW
Cosmos 1943 3.6 06:16:48 10° SW 06:22:01 39° WNW 06:27:18 10° N
GRACE-2 3.8 06:19:21 10° N 06:22:06 59° W 06:24:50 10° SSW
GRACE-1 3.9 06:19:46 10° N 06:22:31 57° W 06:25:15 10° SSW
Cosmos 1633 4.1 06:21:39 10° WSW 06:24:00 16° WNW 06:26:20 10° NW
Cosmos 1892 Rocket 3.6 06:22:20 10° N 06:26:49 82° W 06:31:17 10° S
Cosmos 2366 rocket 4.1 06:22:55 10° S 06:29:12 87° E 06:35:35 10° N
NOSS 3-1 (C) 4.4 06:24:54 10° S 06:30:24 50° ESE 06:36:27 10° NE
Cosmos 1959 Rocket 4.4 06:25:16 10° S 06:31:21 78° W 06:37:29 10° N
USA 129 3.0 06:31:23 10° SSW 06:33:07 23° W 06:34:55 10° NW
Cosmos 2218 Rocket 4.1 06:29:53 10° SSW 06:36:15 72° W 06:42:40 10° N
Helios 1B rocket 2.5 06:34:24 10° SSE 06:38:33 88° ENE 06:42:43 10° NNW
Cosmos 1975 3.2 06:35:34 10° S 06:39:38 73° E 06:43:44 10° NNE
Cosmos 1943 Rocket 2.2 06:34:57 10° NNW 06:40:28 87° WSW 06:45:59 10° SSE
PAYLOAD A 4.3 06:36:38 10° N 06:41:51 52° WNW 06:47:06 10° SSW
Cosmos 1269 Rocket 4.1 06:37:54 10° SSW 06:43:05 57° WNW 06:48:19 10° N
Cosmos 839 Rocket 4.2 06:37:15 10° NNW 06:43:46 77° ENE 06:49:54 10° SSE
Cosmos 158 Rocket 4.1 06:39:35 10° SSW 06:44:51 90° WNW 06:50:15 10° NNE
